GW0751 Weather Reports


Display with metric or nautical units.
time (UTC)temp
F
wind
direction
speed
MPH
gust
MPH
rain 1hr
in
rain 24hr
in
rain mn
in
humidity
%
barometer
mb
20260902115121 58 113 0.0 0.0 0.05 0.00 0.10 95 1014.8
20260902114601 58 68 0.0 0.0 0.06 0.00 0.10 95 1014.8
20260902114046 58 45 0.0 0.0 0.05 0.00 0.09 95 1015.0
20260902113546 58 180 0.0 0.0 0.06 0.00 0.09 95 1015.0
20260902113026 58 90 0.0 0.0 0.05 0.00 0.08 95 1015.0
20260902111947 58 180 0.0 0.0 0.05 0.00 0.08 95 1015.0
20260902111431 58 158 0.0 0.0 0.06 0.00 0.08 95 1014.8
20260902110911 58 135 0.0 0.0 0.05 0.00 0.07 95 1014.8
20260902110351 58 113 0.0 0.0 0.04 0.00 0.06 95 1014.9
20260902105832 58 113 2.0 2.0 0.04 0.00 0.06 95 1014.9
20260902104756 58 45 0.0 0.0 0.02 0.00 0.04 95 1015.0
20260902104236 58 45 2.0 2.0 0.04 0.00 0.04 95 1015.0
20260902103716 58 23 3.0 3.0 0.03 0.00 0.03 94 1015.1
20260902102641 59 90 0.0 0.0 0.03 0.00 0.03 94 1015.2
20260902102121 59 113 0.0 0.0 0.03 0.00 0.03 94 1015.2
20260902101602 59 113 0.0 0.0 0.02 0.00 0.02 94 1015.2
20260902101046 59 270 0.0 0.0 0.02 0.00 0.02 94 1015.2
20260902100526 59 90 0.0 0.0 0.02 0.00 0.02 94 1015.3
20260902100007 59 90 0.0 0.0 0.02 0.00 0.02 94 1015.3
20260902095447 59 90 0.0 0.0 0.02 0.00 0.02 93 1015.3
20260902094931 59 113 0.0 0.0 0.02 0.00 0.02 93 1015.3
20260902094412 59 135 0.0 0.0 0.00 0.00 0.00 93 1015.3
20260902093332 59 158 0.0 0.0 0.00 0.00 0.00 93 1015.3
20260902092816 59 225 0.0 0.0 0.00 0.00 0.00 93 1015.5
20260902092256 59 225 0.0 0.0 0.00 0.00 0.00 93 1015.5
20260902091756 59 270 0.0 0.0 0.00 0.00 0.00 93 1015.5
20260902091237 59 203 0.0 0.0 0.00 0.00 0.00 93 1015.5
20260902090716 59 158 0.0 0.0 0.00 0.00 0.00 93 1015.5
20260902090201 59 315 0.0 0.0 0.00 0.00 0.00 93 1015.6
20260902085642 59 248 1.0 1.0 0.00 0.00 0.00 93 1015.6
20260902085121 59 248 3.0 3.0 0.00 0.00 0.00 93 1015.7
20260902084601 59 270 0.0 0.0 0.00 0.00 0.00 93 1015.7
20260902084047 59 248 0.0 0.0 0.00 0.00 0.00 93 1015.7
20260902083526 59 270 2.0 2.0 0.00 0.00 0.00 93 1015.7
20260902083006 59 248 0.0 0.0 0.00 0.00 0.00 92 1015.8
20260902081932 59 270 4.0 4.0 0.00 0.00 0.00 92 1015.8
20260902081412 59 270 3.0 3.0 0.00 0.00 0.00 92 1015.7
20260902080851 59 248 2.0 2.0 0.00 0.00 0.00 92 1015.7
20260902075831 59 225 0.0 0.0 0.00 0.00 0.00 92 1015.7
20260902075317 59 203 0.0 0.0 0.00 0.00 0.00 92 1015.7
20260902074756 59 248 1.0 1.0 0.00 0.00 0.00 92 1015.7
20260902073716 59 225 0.0 0.0 0.00 0.00 0.00 92 1015.7
20260902072642 59 248 0.0 0.0 0.00 0.00 0.00 93 1015.6
20260902072121 59 225 0.0 0.0 0.00 0.00 0.00 93 1015.6
20260902071622 59 248 1.0 1.0 0.00 0.00 0.00 93 1015.7
20260902071046 59 203 0.0 0.0 0.00 0.00 0.00 93 1015.7
20260902070547 59 248 0.0 0.0 0.00 0.00 0.00 93 1015.7
20260902065506 58 203 0.0 0.0 0.00 0.00 0.02 93 1015.7
20260902064431 58 203 0.0 0.0 0.00 0.00 0.02 93 1015.6
20260902063912 58 203 0.0 0.0 0.00 0.00 0.02 93 1015.5
20260902063351 58 248 1.0 1.0 0.00 0.00 0.02 93 1015.5
20260902062832 58 248 0.0 0.0 0.00 0.00 0.02 93 1015.5
20260902060716 57 225 2.0 2.0 0.00 0.00 0.02 93 1015.5
20260902060202 57 248 3.0 3.0 0.00 0.00 0.02 93 1015.6
20260902055641 57 225 3.0 3.0 0.00 0.00 0.02 93 1015.6
20260902055121 57 225 0.0 0.0 0.00 0.00 0.02 92 1015.7
20260902054547 56 248 0.0 0.0 0.00 0.00 0.02 91 1015.7
20260902054046 56 225 0.0 0.0 0.00 0.00 0.02 90 1015.7
20260902053527 56 270 0.0 0.0 0.00 0.00 0.02 89 1015.7
20260902053007 56 225 0.0 0.0 0.00 0.00 0.02 89 1015.6
20260902052447 56 225 0.0 0.0 0.00 0.00 0.02 89 1015.6
20260902051931 57 248 0.0 0.0 0.00 0.00 0.02 89 1015.6
20260902051412 57 225 0.0 0.0 0.00 0.00 0.02 89 1015.6
20260902050852 57 203 0.0 0.0 0.00 0.00 0.02 89 1015.6
20260902050332 58 225 0.0 0.0 0.00 0.00 0.02 89 1015.5
20260902045817 58 270 0.0 0.0 0.00 0.00 0.02 89 1015.5
20260902045257 58 225 0.0 0.0 0.00 0.00 0.02 89 1015.5
20260902044737 59 225 2.0 2.0 0.00 0.00 0.02 89 1015.5
20260902044217 59 225 3.0 3.0 0.00 0.00 0.02 89 1015.5
20260902043702 59 225 4.0 4.0 0.00 0.00 0.02 89 1015.5
20260902043142 59 203 3.0 3.0 0.00 0.00 0.02 89 1015.5
20260902042622 59 203 4.0 4.0 0.00 0.00 0.02 89 1015.5
20260902042102 59 248 4.0 4.0 0.00 0.00 0.02 89 1015.5
20260902041547 59 225 3.0 3.0 0.00 0.00 0.02 89 1015.5
20260902040507 59 248 2.0 2.0 0.00 0.00 0.02 88 1015.3
20260902035432 59 248 3.0 3.0 0.00 0.00 0.02 87 1015.2
20260902034352 60 225 0.0 0.0 0.00 0.00 0.02 87 1015.2
20260902033832 60 248 0.0 0.0 0.00 0.00 0.02 87 1015.2
20260902033317 60 225 0.0 0.0 0.00 0.00 0.02 86 1015.2
20260902032812 60 225 0.0 0.0 0.00 0.00 0.02 86 1015.2
20260902032257 60 225 0.0 0.0 0.00 0.00 0.02 85 1015.2
20260902030702 60 270 2.0 2.0 0.00 0.00 0.02 85 1015.2
20260902030142 60 203 0.0 0.0 0.00 0.00 0.02 84 1015.1
20260902025622 60 248 1.0 1.0 0.00 0.00 0.02 84 1015.1
20260902025102 60 203 1.0 1.0 0.00 0.00 0.02 84 1014.9
20260902024547 60 248 0.0 0.0 0.00 0.00 0.02 83 1014.9
20260902024042 60 270 1.0 1.0 0.00 0.00 0.02 83 1015.0
20260902023527 61 248 1.0 1.0 0.00 0.00 0.02 83 1015.0
20260902023007 61 248 3.0 3.0 0.00 0.00 0.02 83 1015.1
20260902022447 61 270 4.0 4.0 0.00 0.00 0.02 83 1015.1
20260902021932 61 225 3.0 3.0 0.00 0.00 0.02 82 1015.1
20260902021427 61 248 4.0 4.0 0.00 0.00 0.02 82 1014.9
20260902020927 61 225 4.0 4.0 0.00 0.00 0.02 81 1014.9
20260902020412 61 203 5.0 5.0 0.00 0.00 0.02 81 1014.8
20260902015757 62 248 3.0 3.0 0.00 0.00 0.02 80 1014.8
20260902015237 62 225 3.0 3.0 0.00 0.00 0.02 80 1014.9
20260902014717 62 248 4.0 4.0 0.00 0.00 0.02 80 1014.9
20260902014217 62 248 4.0 4.0 0.00 0.00 0.02 79 1014.9
20260902013717 63 0 3.0 3.0 0.00 0.00 0.02 79 1015.1
20260902013157 63 270 4.0 4.0 0.00 0.00 0.02 78 1015.1
20260902011622 64 0 3.0 3.0 0.00 0.00 0.02 76 1015.1
20260902011102 65 248 4.0 4.0 0.00 0.00 0.02 75 1015.1
20260902010602 65 315 4.0 4.0 0.00 0.00 0.02 74 1014.9
20260902010042 66 293 3.0 3.0 0.00 0.00 0.02 73 1014.9
20260902005507 66 270 5.0 5.0 0.00 0.00 0.02 73 1014.9
20260902004947 68 270 5.0 5.0 0.00 0.00 0.02 71 1014.8
20260902004332 69 113 4.0 4.0 0.00 0.00 0.02 69 1014.8
20260902003812 68 270 2.0 2.0 0.00 0.00 0.02 70 1014.9
20260902003257 69 180 5.0 5.0 0.00 0.00 0.02 67 1014.9
20260902002137 69 135 3.0 3.0 0.00 0.00 0.02 68 1014.9
20260902001447 69 225 3.0 3.0 0.00 0.00 0.02 68 1014.9
20260902000927 68 293 6.0 6.0 0.00 0.00 0.02 68 1014.9
20260902000408 68 180 7.0 7.0 0.00 0.00 0.02 69 1014.9
20260901235852 67 203 5.0 5.0 0.00 0.00 0.02 69 1014.9
20260901235332 68 248 5.0 5.0 0.00 0.00 0.02 68 1014.8
20260901234812 67 225 7.0 7.0 0.00 0.00 0.02 68 1014.8
20260901233232 69 270 5.0 5.0 0.00 0.00 0.02 63 1014.9
20260901232717 70 180 7.0 7.0 0.00 0.00 0.02 62 1014.8
20260901232157 71 270 7.0 7.0 0.00 0.00 0.02 61 1014.8
20260901231637 74 270 4.0 4.0 0.00 0.00 0.02 57 1014.8
20260901231117 75 270 4.0 4.0 0.00 0.00 0.02 57 1014.8
20260901230602 75 248 3.0 3.0 0.00 0.00 0.02 57 1014.9
20260901225523 74 248 5.0 5.0 0.00 0.00 0.02 57 1014.9
20260901225002 75 225 5.0 5.0 0.00 0.00 0.02 58 1015.0
20260901224447 72 158 5.0 5.0 0.00 0.00 0.02 61 1015.0
20260901223927 73 203 5.0 5.0 0.00 0.00 0.02 60 1015.0
20260901222847 71 270 4.0 4.0 0.00 0.00 0.02 64 1015.2
20260901222332 74 225 5.0 5.0 0.00 0.00 0.02 57 1015.2
20260901215042 74 23 6.0 6.0 0.00 0.00 0.02 57 1015.2
20260901214502 75 203 5.0 5.0 0.00 0.00 0.02 56 1015.2
20260901213327 76 248 7.0 7.0 0.00 0.00 0.02 55 1015.1
20260901212732 76 270 7.0 7.0 0.00 0.00 0.02 55 1015.0
20260901212003 74 225 5.0 5.0 0.00 0.00 0.02 56 1015.0
20260901211442 75 203 5.0 5.0 0.00 0.00 0.02 54 1015.0
20260901210927 77 225 7.0 7.0 0.00 0.00 0.02 52 1015.0
20260901210407 76 203 6.0 6.0 0.00 0.00 0.02 52 1014.9
20260901205327 76 248 7.0 7.0 0.00 0.00 0.02 54 1014.9
20260901204253 72 293 5.0 5.0 0.00 0.00 0.02 58 1014.9
20260901203213 77 225 5.0 5.0 0.00 0.00 0.02 52 1015.0
20260901202657 77 203 4.0 4.0 0.00 0.00 0.02 53 1015.1
20260901202137 77 270 7.0 7.0 0.00 0.00 0.02 54 1015.1
20260901201617 76 225 4.0 4.0 0.00 0.00 0.02 55 1015.5
20260901201057 74 270 7.0 7.0 0.00 0.00 0.02 57 1015.5
20260901200537 74 270 3.0 3.0 0.01 0.00 0.02 59 1015.3
20260901200022 73 248 4.0 4.0 0.01 0.00 0.02 60 1015.3
20260901194922 72 293 4.0 4.0 0.01 0.00 0.02 61 1015.5
20260901194407 72 203 5.0 5.0 0.01 0.00 0.02 61 1015.5
20260901193848 73 270 5.0 5.0 0.01 0.00 0.02 58 1015.5
20260901192807 73 248 4.0 4.0 0.01 0.00 0.02 61 1015.5
20260901192253 71 338 4.0 4.0 0.01 0.00 0.02 63 1015.5
20260901191753 71 225 2.0 2.0 0.01 0.00 0.02 63 1015.5
20260901191232 72 270 5.0 5.0 0.01 0.00 0.02 61 1015.5
20260901190713 73 23 4.0 4.0 0.00 0.00 0.01 60 1015.5
20260901190152 72 203 5.0 5.0 0.00 0.00 0.01 63 1015.5
20260901185638 72 270 4.0 4.0 0.00 0.00 0.01 63 1015.5
20260901185117 72 225 5.0 5.0 0.00 0.00 0.01 61 1015.5
20260901184558 73 248 5.0 5.0 0.00 0.00 0.01 61 1015.5
20260901183523 73 45 3.0 3.0 0.00 0.00 0.01 63 1015.5
20260901183002 72 248 3.0 3.0 0.00 0.00 0.01 67 1015.5
20260901181402 71 248 4.0 4.0 0.00 0.00 0.01 66 1015.5
20260901180347 73 270 5.0 5.0 0.00 0.00 0.01 67 1015.5
20260901175827 72 0 3.0 3.0 0.00 0.00 0.01 69 1015.5
20260901175308 70 270 4.0 4.0 0.00 0.00 0.01 70 1015.3
20260901174748 70 270 3.0 3.0 0.00 0.00 0.01 73 1015.3
20260901173732 67 315 3.0 3.0 0.00 0.00 0.01 78 1015.2
20260901173213 66 248 1.0 1.0 0.00 0.00 0.01 78 1015.2
20260901172653 66 270 3.0 3.0 0.00 0.00 0.01 79 1015.0
20260901172132 66 68 2.0 2.0 0.00 0.00 0.01 79 1015.0
20260901171618 65 270 4.0 4.0 0.01 0.00 0.01 79 1014.9
20260901170537 66 270 2.0 2.0 0.01 0.00 0.01 79 1014.8
20260901170017 66 225 1.0 1.0 0.01 0.00 0.01 80 1014.8
20260901165503 66 225 3.0 3.0 0.01 0.00 0.01 80 1014.8
20260901164943 65 225 3.0 3.0 0.01 0.00 0.01 81 1014.8
20260901164423 65 270 2.0 2.0 0.01 0.00 0.01 82 1014.8
20260901163348 64 270 2.0 2.0 0.01 0.00 0.01 84 1014.8
20260901162828 63 203 3.0 3.0 0.01 0.00 0.01 85 1014.8
20260901162308 63 225 1.0 1.0 0.01 0.00 0.01 87 1014.8
20260901161748 61 158 1.0 1.0 0.00 0.00 0.00 90 1014.8
20260901161233 61 225 2.0 2.0 0.00 0.00 0.00 92 1014.8
20260901160713 61 225 0.0 0.0 0.00 0.00 0.00 93 1014.8
20260901160153 60 203 0.0 0.0 0.00 0.00 0.00 94 1014.7
20260901155633 59 203 0.0 0.0 0.00 0.00 0.00 95 1014.7
20260901154558 59 270 0.0 0.0 0.00 0.00 0.00 96 1014.7
20260901154038 58 225 0.0 0.0 0.00 0.00 0.00 96 1014.6
20260901153518 58 203 0.0 0.0 0.00 0.00 0.00 96 1014.6
20260901153003 58 248 0.0 0.0 0.00 0.00 0.00 96 1014.5
20260901152443 58 248 0.0 0.0 0.00 0.00 0.00 96 1014.5
20260901151923 58 270 1.0 1.0 0.00 0.00 0.00 96 1014.5
20260901150328 57 203 0.0 0.0 0.00 0.00 0.00 96 1014.2
20260901145809 57 270 3.0 3.0 0.00 0.00 0.00 96 1014.2
20260901144733 57 248 3.0 3.0 0.00 0.00 0.00 96 1013.9
20260901144213 57 203 3.0 3.0 0.00 0.00 0.00 96 1013.7
20260901143653 57 225 0.0 0.0 0.00 0.00 0.00 96 1013.7
20260901143133 56 225 1.0 1.0 0.00 0.00 0.00 96 1013.7
20260901142058 56 248 0.0 0.0 0.00 0.00 0.00 96 1013.6
20260901141018 56 248 0.0 0.0 0.00 0.00 0.00 96 1013.4
20260901140503 56 225 0.0 0.0 0.00 0.00 0.00 96 1013.3
20260901135943 56 248 0.0 0.0 0.00 0.00 0.00 96 1013.3
20260901135443 56 180 2.0 2.0 0.00 0.00 0.00 96 1013.3
20260901134923 56 225 2.0 2.0 0.00 0.00 0.00 96 1013.1
20260901134403 56 248 1.0 1.0 0.00 0.00 0.00 96 1013.1
20260901133848 56 248 0.0 0.0 0.00 0.00 0.00 96 1013.1
20260901133328 56 270 0.0 0.0 0.00 0.00 0.00 96 1013.1
20260901132808 56 248 0.0 0.0 0.00 0.00 0.00 96 1013.0
20260901132249 56 225 0.0 0.0 0.00 0.00 0.00 96 1013.0
20260901131748 56 225 0.0 0.0 0.00 0.00 0.00 96 1012.8
20260901131233 55 248 0.0 0.0 0.00 0.00 0.00 96 1012.8
20260901130713 55 248 0.0 0.0 0.00 0.00 0.00 96 1012.8
20260901130153 55 248 0.0 0.0 0.00 0.00 0.00 96 1012.8
20260901124558 55 225 0.0 0.0 0.00 0.00 0.00 96 1012.6
20260901124038 55 180 0.0 0.0 0.00 0.00 0.00 96 1012.6
20260901123003 55 248 0.0 0.0 0.00 0.00 0.00 96 1012.6
20260901122443 55 225 0.0 0.0 0.00 0.00 0.00 96 1012.6
20260901121923 54 248 0.0 0.0 0.00 0.00 0.00 96 1012.6
20260901121403 54 225 0.0 0.0 0.00 0.00 0.00 96 1012.6
20260901120328 54 225 0.0 0.0 0.00 0.00 0.00 96 1012.6
20260901115808 54 203 0.0 0.0 0.00 0.00 0.00 96 1012.6
20260901115248 54 225 0.0 0.0 0.00 0.00 0.00 96 1012.6